#timestamp,LO_Frequency,Hit,StdDev 
1605830415.6,286047004.3,N
1605830435.4,286047002.8,N
1605830455.2,286047001.8,N
1605830475.1,286047000.2,N
1605830476.0,286047000.2,N
1605830495.8,286047001.8,N
1605830515.7,286047004.0,N
1605830535.5,286047002.4,N
1605830555.3,286047000.1,N
1605830575.2,286047002.4,N
1605830595.0,286047001.7,N
1605830595.9,286047001.7,N
1605830615.7,286047004.3,N
1605830635.6,286047001.6,N
1605830655.4,286047002.3,N
1605830675.3,286047000.7,N
1605830695.1,286047000.4,N
1605830696.0,286047000.4,N
1605830715.8,286047000.9,N
1605830735.7,286047002.8,N
1605830755.5,286047002.3,N
1605830775.3,286047003.1,N
1605830795.2,286047001.3,N
1605830815.0,286047002.0,N
1605830815.9,286047002.0,N
1605830835.8,286047003.0,N
1605830855.6,286047005.4,Y
1605830875.4,286047002.7,P
1605830895.3,286047000.1,N
1605830915.1,286047002.2,N
1605830935.8,286047002.8,N
1605830955.7,286047000.4,N
1605830975.5,286047000.3,N
1605830995.4,286047002.7,N
1605831015.2,286047002.4,N
1605831035.0,286047000.5,N
1605831035.9,286047000.5,N
1605831055.8,286046999.8,N
1605831075.6,286047000.3,N
1605831095.4,286047000.2,N
1605831115.3,286047002.0,N
1605831135.1,286047002.6,N
1605831155.9,286047002.5,N
1605831175.7,286047002.3,N
1605831195.5,286047000.1,N
1605831215.4,286047002.8,N
1605831235.2,286046999.9,N
1605831255.0,286046999.7,N
1605831255.9,286046999.7,N
1605831275.8,286047000.1,N
1605831295.6,286047001.8,N
1605831315.5,286047002.6,N
1605831335.3,286046999.7,N
1605831355.1,286047002.1,N
1605831375.9,286046999.9,N
1605831395.7,286047000.0,N
1605831415.5,286046999.3,N
1605831435.4,286046999.0,N
1605831455.2,286046999.1,N
1605831475.1,286046999.6,N
1605831476.0,286046999.6,N
1605831495.8,286047001.1,N
1605831515.6,286046998.6,N
1605831535.5,286046998.1,N
1605831555.3,286047001.1,N
1605831575.1,286046999.8,N
1605831595.9,286047000.4,N
1605831615.7,286047002.7,N
1605831635.6,286047000.4,N
1605831655.4,286047000.4,N
1605831675.2,286047002.4,N
1605831695.1,286047002.0,N
1605831696.0,286047002.0,N
1605831715.8,286047002.6,N
1605831735.6,286047001.7,N
1605831755.5,286047001.8,N
1605831775.3,286047000.0,N
1605831795.2,286047000.0,N
1605831815.9,286047002.8,N
1605831835.7,286047002.8,N
1605831855.6,286047000.6,N
1605831875.4,286046998.6,N
1605831895.2,286046999.4,N
1605831915.1,286046999.6,N
1605831916.0,286046999.6,N
1605831935.8,286046998.9,N
1605831955.7,286047000.9,N
1605831975.5,286046999.9,N
1605831995.3,286047000.2,N
1605832015.2,286047002.3,N
1605832035.9,286046998.3,N
1605832055.7,286046998.5,N
1605832075.6,286047000.4,N
1605832095.4,286047002.4,N
1605832115.3,286047002.8,N
1605832135.1,286047002.7,N
1605832136.0,286047002.7,N
1605832155.8,286046999.7,N
1605832175.7,286047000.9,N
1605832195.5,286047000.0,N
1605832215.3,286047003.9,N
1605832235.2,286047003.8,N
1605832255.0,286047004.2,N
1605832255.9,286047004.2,N
1605832275.8,286047003.6,N
1605832295.6,286047005.6,Y
1605832315.4,286047004.3,P
1605832335.3,286047000.5,N
1605832355.1,286047000.5,N
1605832375.8,286047000.2,N
1605832395.7,286047003.1,N
1605832415.5,286047004.2,N
1605832435.4,286047001.6,N
1605832455.2,286047001.6,N
1605832475.0,286047002.1,N
1605832475.9,286047002.1,N
1605832495.8,286047000.9,N
1605832515.6,286046999.8,N
1605832535.4,286047000.4,N
1605832555.3,286047002.3,N
1605832575.1,286047002.6,N
1605832595.9,286047000.4,N
1605832615.7,286047000.9,N
1605832635.5,286047002.6,N
1605832655.4,286047001.4,N
1605832675.2,286047001.3,N
1605832695.0,286047003.3,N
1605832695.9,286047003.3,N
1605832715.8,286047003.4,N
1605832735.6,286047003.8,N
1605832755.4,286047003.1,N
1605832775.3,286047001.3,N
1605832795.1,286047004.3,Y
1605832815.9,286047000.3,P
1605832835.7,286047000.2,N
1605832855.5,286046998.3,N
1605832875.4,286046998.7,N
1605832925.2,286046999.2,E
1605832935.2,286046999.4,N
1605832955.9,286046998.2,P
1605832975.7,286047000.4,N
1605832995.6,286046998.2,N
1605833015.4,286046998.2,N
1605833035.2,286047000.6,N
1605833055.1,286046998.3,N
1605833056.0,286046998.3,N
1605833075.8,286046998.9,N
1605833095.7,286046998.6,N
1605833115.5,286046998.8,N
1605833135.3,286046999.2,N
1605833155.2,286046996.5,Y
1605833175.0,286046998.6,P
1605833175.9,286046998.6,P
1605833195.7,286046999.0,P
1605833215.6,286046998.6,Y
1605833235.4,286046998.6,P
1605833255.3,286047000.6,P
1605833275.1,286046998.5,N
1605833295.8,286046998.2,N
1605833315.7,286046999.9,N
1605833335.5,286047001.1,N
1605833355.3,286046998.4,N
1605833375.2,286046999.6,N
1605833395.0,286046999.3,N
1605833395.9,286046999.3,N
1605833415.8,286047000.0,N
1605833435.6,286047001.0,N
1605833455.4,286047002.4,N
1605833475.3,286047000.2,N
1605833495.1,286047000.8,N
1605833515.8,286046998.4,N
1605833535.7,286046999.1,N
1605833555.5,286046999.0,N
1605833575.4,286046998.4,N
1605833595.2,286046998.7,N
1605833615.0,286046998.1,N
1605833615.9,286046998.1,N
1605833665.8,286046998.7,E
1605833675.7,286046999.4,N
1605833695.6,286047001.0,P
1605833715.4,286046999.6,N
1605833735.2,286046999.0,N
1605833755.1,286047001.1,N
1605833756.0,286047001.1,N
1605833775.8,286046996.8,Y
1605833795.7,286046996.9,P
1605833815.5,286046994.9,P
1605833835.3,286046997.4,N
1605833855.2,286046996.9,N
1605833875.0,286046997.4,N
1605833875.9,286046997.4,N
1605833895.7,286046995.0,Y
1605833915.6,286046998.6,P
1605833935.4,286046998.8,N
1605833955.3,286047000.7,N
1605833975.1,286046998.6,N
1605833976.0,286046998.6,N
1605833995.8,286047000.4,N
